Location: Stara Lesna
(49.1528°N, 20.2911°E)
Time: 04:11:46
(UTC+02:00)

CENTAUR R/B - Pass Details

Date: 21 September 2019
Orbit: 780 x 1408 km, 63.4° (Epoch: 08 October)

Event Time Altitude Azimuth Distance (km) Brightness Sun altitude
Exits shadow 04:59:39 20° 259° (W) 2,109 3.6 -14.2°
Maximum altitude 05:04:00 48° 326° (NW) 1,350 3.1 -13.5°
Drops below altitude 10° 05:11:07 10° 40° (NE) 3,119 6.0 -12.4°
Sets 05:14:13 0° 46° (NE) 4,181 7.0 -11.9°
